Retour au catalogue

ONEWEB-0669

ActifCommunicationsPO
NORAD 55828·PAYLOAD·🇬🇧 United Kingdom

Lancé Mar 9, 2023 depuis Cape Canaveral Space Force Station

Loading…

Prochains Passages (prochaines 24 heures)

TLE

FraisSource: CelesTrak SupGP

Époque: Sep 14, 2026, 15:59 UTC

1 55828C 23029AJ  26257.66647407 -.00002859  00000+0 -70390-2 0  2579
2 55828  87.9136 256.5915 0002335 101.8117  10.4688 13.20774223    18

Suivez ONEWEB-0669 en temps réel avec AllMySat

Download on the App Store